Location: Laterina
(43.5167°N, 11.7167°E)
Time: 06:19:58
(UTC+00:00)

Cosmos 1125 Rocket - Pass Details

Date: 24 June 2021
Orbit: 757 x 780 km, 74.0° (Epoch: 26 July)

Event Time Altitude Azimuth Distance (km) Brightness Sun altitude
Rises 23:42:54 0° 349° (NNW) 3,248 8.0 -22.8°
Reaches altitude 10° 23:45:41 10° 2° (N) 2,321 7.1 -22.7°
Maximum altitude 23:50:03 26° 58° (ENE) 1,498 5.4 -22.6°
Drops below altitude 10° 23:54:25 10° 114° (ESE) 2,321 5.8 -22.5°
Enters shadow 23:54:47 - 116° (ESE) 2,439 5.9 -22.5°
